sat.trackr.live / text

‹ back to catalog

STARLINK-3608

NORAD 51776 · 2022-017J

PAYLOAD ACTIVE UNKNOWN

§ Identity

Operator
Country
US
Launch date
2022-02-25
Launch site
AFWTR
Launch vehicle
Mass (kg)
RCS (m²)

Purposes: comms

External: N2YO · Heavens-Above · Gunter

§ Orbital elements

Epoch: 2026-05-24T23:11:20.188032Z

Period
95.44 min
Inclination
53.2138°
Eccentricity
0.0001397
Mean motion
15.08856967 rev/d
Perigee alt
538.7 km
Apogee alt
540.7 km
Semi-major
6,917.8 km
B*
-1.7588e-4
RAAN
356.6998°
Arg perigee
95.9893°
Mean anomaly
264.1258°
Rev number
23,408

§ Raw data

STARLINK-36081 51776U 22017J   26144.96620588 -.00003087  00000+0 -17588-3 0  99902 51776  53.2138 356.6998 0001397  95.9893 264.1258 15.08856967234089

JSON: /api/v1/satellites/51776 · /tle

For live sub-satellite position, see the globe view (requires WebGL).

§ Visibility from observer

Set your observer location to see the next 7 days of passes ≥ 10°. The values pass through the URL so the page stays shareable.

No JS? Fill the form by hand. The geolocation button needs JavaScript.